• In Latvia
  • List of Countries
  • For 7 days
  • Water Temperature
  • Satellite Maps
  • Weather Map
  • Weather Widgets
  • user-avatar
    Login

    Hourly Weather Lubango

    Today, 24 May, Wednesday

    Time Temperature Precipitation Wind Pressure Humidity
    00:00 +10°C° 0 mm 1 mps 607 mmHg 71%
    01:00 +10°C° 0 mm 1 mps 607 mmHg 72%
    02:00 +10°C° 0 mm 1 mps 607 mmHg 73%
    03:00 +9°C° 0 mm 1 mps 606 mmHg 73%
    04:00 +9°C° 0 mm 1 mps 606 mmHg 74%
    05:00 +10°C° 0 mm 1 mps 607 mmHg 68%
    06:00 +11°C° 0 mm 1 mps 607 mmHg 63%
    07:00 +13°C° 0 mm 1 mps 609 mmHg 56%
    08:00 +18°C° 0 mm 1 mps 610 mmHg 46%
    09:00 +21°C° 0 mm 1 mps 612 mmHg 36%
    10:00 +25°C° 0 mm 1 mps 613 mmHg 26%
    11:00 +26°C° 0 mm 1 mps 613 mmHg 24%
    12:00 +27°C° 0 mm 1 mps 613 mmHg 23%
    13:00 +28°C° 0 mm 1 mps 613 mmHg 21%
    14:00 +27°C° 0 mm 1 mps 612 mmHg 23%
    15:00 +26°C° 0 mm 1 mps 611 mmHg 25%
    16:00 +25°C° 0 mm 1 mps 611 mmHg 27%
    17:00 +22°C° 0 mm 1 mps 610 mmHg 33%
    18:00 +19°C° 0 mm 1 mps 609 mmHg 39%
    19:00 +14°C° 0 mm 1 mps 608 mmHg 45%
    20:00 +13°C° 0 mm 1 mps 607 mmHg 50%
    21:00 +12°C° 0 mm 1 mps 607 mmHg 55%
    22:00 +10°C° 0 mm 1 mps 607 mmHg 60%
    23:00 +10°C° 0 mm 1 mps 607 mmHg 61%

    Tomorrow, 25 May, Thursday

    Time Temperature Precipitation Wind Pressure Humidity
    00:00 +10°C° 0 mm 1 mps 607 mmHg 62%
    01:00 +9°C° 0 mm 1 mps 607 mmHg 63%
    02:00 +9°C° 0 mm 1 mps 606 mmHg 62%
    03:00 +9°C° 0 mm 1 mps 606 mmHg 62%
    04:00 +9°C° 0 mm 1 mps 606 mmHg 62%
    05:00 +10°C° 0 mm 1 mps 607 mmHg 58%
    06:00 +10°C° 0 mm 1 mps 607 mmHg 54%
    07:00 +11°C° 0 mm 1 mps 608 mmHg 51%
    08:00 +15°C° 0 mm 1 mps 609 mmHg 42%
    09:00 +20°C° 0 mm 1 mps 611 mmHg 34%
    10:00 +24°C° 0 mm 1 mps 613 mmHg 26%
    11:00 +26°C° 0 mm 1 mps 613 mmHg 24%
    12:00 +27°C° 0 mm 1 mps 613 mmHg 21%
    13:00 +28°C° 0 mm 1 mps 613 mmHg 19%
    14:00 +28°C° 0 mm 2 mps 612 mmHg 20%
    15:00 +27°C° 0 mm 2 mps 611 mmHg 21%
    16:00 +26°C° 0 mm 2 mps 611 mmHg 22%
    17:00 +21°C° 0 mm 2 mps 609 mmHg 32%
    18:00 +18°C° 0 mm 1 mps 608 mmHg 42%
    19:00 +13°C° 0 mm 1 mps 606 mmHg 52%
    20:00 +12°C° 0 mm 1 mps 606 mmHg 56%
    21:00 +11°C° 0 mm 1 mps 606 mmHg 60%
    22:00 +10°C° 0 mm 1 mps 606 mmHg 64%
    23:00 +10°C° 0 mm 1 mps 606 mmHg 62%

    Day after tomorrow, 26 May, Friday

    Time Temperature Precipitation Wind Pressure Humidity
    00:00 +10°C° 0 mm 1 mps 606 mmHg 61%
    01:00 +10°C° 0 mm 1 mps 606 mmHg 59%
    02:00 +10°C° 0 mm 1 mps 606 mmHg 57%
    03:00 +11°C° 0 mm 1 mps 607 mmHg 55%
    04:00 +11°C° 0 mm 1 mps 607 mmHg 53%
    05:00 +11°C° 0 mm 1 mps 607 mmHg 51%
    06:00 +12°C° 0 mm 1 mps 607 mmHg 49%
    07:00 +12°C° 0 mm 1 mps 608 mmHg 48%
    08:00 +16°C° 0 mm 1 mps 610 mmHg 41%
    09:00 +21°C° 0 mm 1 mps 611 mmHg 34%
    10:00 +25°C° 0 mm 1 mps 613 mmHg 27%
    11:00 +26°C° 0 mm 2 mps 613 mmHg 25%
    12:00 +28°C° 0 mm 2 mps 613 mmHg 22%
    13:00 +29°C° 0 mm 2 mps 613 mmHg 20%
    14:00 +28°C° 0 mm 2 mps 612 mmHg 21%
    15:00 +27°C° 0 mm 2 mps 611 mmHg 23%
    16:00 +26°C° 0 mm 2 mps 611 mmHg 24%
    17:00 +23°C° 0 mm 2 mps 610 mmHg 33%
    18:00 +18°C° 0 mm 2 mps 609 mmHg 42%
    19:00 +14°C° 0 mm 2 mps 608 mmHg 51%
    20:00 +13°C° 0 mm 1 mps 608 mmHg 56%
    21:00 +12°C° 0 mm 1 mps 608 mmHg 62%
    22:00 +11°C° 0 mm 1 mps 608 mmHg 68%
    23:00 +11°C° 0 mm 1 mps 608 mmHg 67%

    27 May, Saturday

    Time Temperature Precipitation Wind Pressure Humidity
    00:00 +11°C° 0 mm 1 mps 608 mmHg 66%
    01:00 +12°C° 0 mm 1 mps 608 mmHg 65%
    02:00 +12°C° 0 mm 1 mps 608 mmHg 64%
    03:00 +12°C° 0 mm 1 mps 608 mmHg 62%
    04:00 +12°C° 0 mm 1 mps 607 mmHg 61%
    05:00 +12°C° 0 mm 1 mps 608 mmHg 59%
    06:00 +12°C° 0 mm 1 mps 608 mmHg 57%
    07:00 +12°C° 0 mm 1 mps 609 mmHg 54%
    08:00 +16°C° 0 mm 1 mps 611 mmHg 45%
    09:00 +20°C° 0 mm 2 mps 613 mmHg 36%
    10:00 +25°C° 0 mm 2 mps 615 mmHg 27%
    11:00 +26°C° 0 mm 2 mps 614 mmHg 25%
    12:00 +27°C° 0 mm 2 mps 614 mmHg 23%
    13:00 +28°C° 0 mm 1 mps 614 mmHg 21%
    14:00 +28°C° 0 mm 1 mps 613 mmHg 23%
    15:00 +27°C° 0 mm 2 mps 612 mmHg 25%
    16:00 +26°C° 0 mm 2 mps 612 mmHg 27%
    17:00 +23°C° 0 mm 2 mps 611 mmHg 33%
    18:00 +20°C° 0 mm 1 mps 610 mmHg 39%
    19:00 +16°C° 0 mm 1 mps 610 mmHg 46%
    20:00 +15°C° 0 mm 1 mps 609 mmHg 52%
    21:00 +14°C° 0 mm 1 mps 609 mmHg 58%
    22:00 +12°C° 0 mm 1 mps 609 mmHg 65%
    23:00 +12°C° 0 mm 1 mps 609 mmHg 66%

    28 May, Sunday

    Time Temperature Precipitation Wind Pressure Humidity
    00:00 +12°C° 0 mm 1 mps 608 mmHg 67%
    01:00 +12°C° 0 mm 1 mps 608 mmHg 68%
    02:00 +11°C° 0 mm 1 mps 608 mmHg 70%
    03:00 +11°C° 0 mm 1 mps 608 mmHg 73%
    04:00 +10°C° 0 mm 1 mps 607 mmHg 75%
    05:00 +11°C° 0 mm 1 mps 608 mmHg 72%
    06:00 +12°C° 0 mm 1 mps 609 mmHg 68%
    07:00 +12°C° 0 mm 1 mps 609 mmHg 65%
    08:00 +16°C° 0 mm 1 mps 611 mmHg 53%
    09:00 +22°C° 0 mm 1 mps 613 mmHg 41%
    10:00 +26°C° 0 mm 1 mps 615 mmHg 30%
    11:00 +27°C° 0 mm 1 mps 615 mmHg 27%
    12:00 +28°C° 0 mm 1 mps 614 mmHg 25%
    13:00 +29°C° 0 mm 1 mps 614 mmHg 23%
    14:00 +28°C° 0 mm 1 mps 613 mmHg 25%
    15:00 +27°C° 0 mm 1 mps 613 mmHg 27%
    16:00 +25°C° 0 mm 2 mps 612 mmHg 29%
    17:00 +22°C° 0 mm 1 mps 611 mmHg 37%
    18:00 +19°C° 0 mm 1 mps 610 mmHg 44%
    19:00 +15°C° 0 mm 1 mps 610 mmHg 51%
    20:00 +14°C° 0 mm 1 mps 609 mmHg 54%
    21:00 +14°C° 0 mm 1 mps 609 mmHg 56%
    22:00 +13°C° 0 mm 1 mps 609 mmHg 58%
    23:00 +12°C° 0 mm 1 mps 609 mmHg 60%

    29 May, Monday

    Time Temperature Precipitation Wind Pressure Humidity
    00:00 +12°C° 0 mm 1 mps 609 mmHg 62%
    01:00 +11°C° 0 mm 1 mps 608 mmHg 64%
    02:00 +11°C° 0 mm 1 mps 608 mmHg 67%
    03:00 +11°C° 0 mm 1 mps 608 mmHg 69%
    04:00 +10°C° 0 mm 1 mps 607 mmHg 71%
    05:00 +11°C° 0 mm 1 mps 608 mmHg 66%
    06:00 +12°C° 0 mm 1 mps 608 mmHg 61%
    07:00 +12°C° 0 mm 1 mps 609 mmHg 56%
    08:00 +16°C° 0 mm 1 mps 611 mmHg 47%
    09:00 +21°C° 0 mm 1 mps 613 mmHg 38%
    10:00 +25°C° 0 mm 1 mps 615 mmHg 28%
    11:00 +27°C° 0 mm 1 mps 614 mmHg 26%
    12:00 +28°C° 0 mm 1 mps 614 mmHg 24%
    13:00 +29°C° 0 mm 1 mps 614 mmHg 21%
    14:00 +28°C° 0 mm 1 mps 614 mmHg 22%
    15:00 +27°C° 0 mm 2 mps 613 mmHg 24%
    16:00 +26°C° 0 mm 2 mps 612 mmHg 25%
    17:00 +23°C° 0 mm 2 mps 611 mmHg 32%
    18:00 +20°C° 0 mm 1 mps 610 mmHg 38%
    19:00 +15°C° 0 mm 1 mps 609 mmHg 45%
    20:00 +14°C° 0 mm 1 mps 609 mmHg 51%
    21:00 +13°C° 0 mm 1 mps 609 mmHg 56%
    22:00 +11°C° 0 mm 1 mps 608 mmHg 62%
    23:00 +11°C° 0 mm 1 mps 608 mmHg 62%
    Show more